Weather History for LTAF - October, 2013

Change the Weather History Date:

Monday, October 28, 2013

  Actual Average Record
Temperature  
Mean Temperature 65 °F -  
Max Temperature 82 °F 71 °F 93 °F (2004)
Min Temperature 48 °F 49 °F 48 °F (2013)
Growing Degree Days 15 (Base 50)    
Moisture  
Dew Point 42 °F    
Average Humidity 53    
Maximum Humidity 82    
Minimum Humidity 13    
Precipitation  
Precipitation 0.00 in 0.10 in - ()
Sea Level Pressure  
Sea Level Pressure 30.03 in    
Wind  
Wind Speed 3 mph ()    
Max Wind Speed 9 mph    
Max Gust Speed -    
Averages and records for this station are not official NWS values.
T = Trace of Precipitation, MM = Missing Value Source: Averaged Metar Reports

Daily Weather History Graph

Daily Weather History Graph

Search for Another Location

Airport or City:

Trip Planner

Search our weather history database for the weather conditions in past years. The results will help you decide how hot, cold, wet, or windy it might be!

Date:

Astronomy

Oct. 28, 2013 Rise Set
Actual Time 5:58 AM EET 4:45 PM EET
Civil Twilight 5:32 AM EET 5:12 PM EET
Nautical Twilight 5:01 AM EET 5:43 PM EET
Astronomical Twilight 4:31 AM EET 6:13 PM EET
Moon No Moon Rise 1:08 PM EET (10/28)
Length of Visible Light 11h 40m
Length of Day
10h 47m
Last Quarter, 36% of the Moon is Illuminated
Oct 28
Last Quarter
Nov 3
New
Nov 10
First Quarter
Nov 17
Full
Nov 25
Last Quarter

Hourly Weather History & Observations

Time (EET) Temp. Dew Point Humidity Pressure Visibility Wind Dir Wind Speed Gust Speed Precip Events Conditions
12:20 AM 55.4 °F 50.0 °F 82% 30.01 in - Variable 2.3 mph - N/A   Clear
12:50 AM 53.6 °F 48.2 °F 82% 30.04 in - Variable 1.2 mph - N/A   Clear
1:20 AM 53.6 °F 48.2 °F 82% 30.01 in - Variable 2.3 mph - N/A   Clear
1:50 AM 53.6 °F 48.2 °F 82% 30.01 in - North 3.5 mph - N/A   Clear
2:20 AM 53.6 °F 46.4 °F 77% 30.01 in - SE 4.6 mph - N/A   Clear
2:50 AM 51.8 °F 46.4 °F 82% 30.01 in - SW 3.5 mph - N/A   Clear
3:20 AM 51.8 °F 46.4 °F 82% 30.01 in - Variable 2.3 mph - N/A   Clear
3:50 AM 50.0 °F 44.6 °F 82% 30.04 in - West 3.5 mph - N/A   Clear
4:20 AM 50.0 °F 44.6 °F 82% 30.04 in - Variable 1.2 mph - N/A   Clear
4:50 AM 48.2 °F 42.8 °F 82% 30.04 in - North 1.2 mph - N/A   Clear
5:20 AM 50.0 °F 42.8 °F 76% 30.04 in - NNE 3.5 mph - N/A   Clear
5:50 AM 50.0 °F 44.6 °F 82% 30.04 in - Variable 2.3 mph - N/A   Clear
6:20 AM 50.0 °F 42.8 °F 76% 30.04 in - Calm Calm - N/A   Clear
6:50 AM 48.2 °F 42.8 °F 82% 30.04 in - Variable 2.3 mph - N/A   Clear
7:20 AM 55.4 °F 46.4 °F 72% 30.06 in - Calm Calm - N/A   Clear
7:50 AM 59.0 °F 46.4 °F 63% 30.06 in - Calm Calm - N/A   Clear
8:20 AM 62.6 °F 48.2 °F 59% 30.06 in - Variable 2.3 mph - N/A   Clear
8:50 AM 68.0 °F 41.0 °F 37% 30.06 in - Variable 1.2 mph - N/A   Clear
9:20 AM 73.4 °F 41.0 °F 31% 30.06 in - Variable 1.2 mph - N/A   Clear
9:50 AM 73.4 °F 39.2 °F 29% 30.06 in - Variable 2.3 mph - N/A   Clear
10:20 AM 75.2 °F 33.8 °F 22% 30.06 in - South 3.5 mph - N/A   Clear
10:50 AM 77.0 °F 35.6 °F 22% 30.06 in - SSE 3.5 mph - N/A   Clear
11:20 AM 77.0 °F 32.0 °F 19% 30.04 in - Variable 2.3 mph - N/A   Clear
11:50 AM 78.8 °F 28.4 °F 16% 30.04 in - Variable 2.3 mph - N/A   Clear
12:20 PM 80.6 °F 28.4 °F 15% 30.01 in - Variable 2.3 mph - N/A   Clear
12:50 PM 80.6 °F 26.6 °F 14% 30.01 in - South 3.5 mph - N/A   Clear
1:20 PM 82.4 °F 28.4 °F 14% 30.01 in - South 4.6 mph - N/A   Clear
1:50 PM 80.6 °F 26.6 °F 14% 30.01 in - Variable 3.5 mph - N/A   Clear
2:20 PM 82.4 °F 26.6 °F 13% 30.01 in - Variable 2.3 mph - N/A   Clear
2:50 PM 82.4 °F 28.4 °F 14% 30.01 in - Variable 2.3 mph - N/A   Clear
3:20 PM 78.8 °F 35.6 °F 21% 30.01 in - SW 9.2 mph - N/A   Clear
3:50 PM 77.0 °F 37.4 °F 24% 30.01 in - WSW 9.2 mph - N/A   Clear
4:20 PM 75.2 °F 39.2 °F 27% 30.01 in - WSW 8.1 mph - N/A   Clear
4:50 PM 69.8 °F 42.8 °F 38% 30.01 in - WSW 6.9 mph - N/A   Clear
5:20 PM 68.0 °F 44.6 °F 43% 30.01 in - WSW 5.8 mph - N/A   Clear
5:50 PM 66.2 °F 44.6 °F 46% 30.01 in - West 3.5 mph - N/A   Clear
6:20 PM 66.2 °F 46.4 °F 49% 30.01 in - West 5.8 mph - N/A   Clear
6:50 PM 66.2 °F 48.2 °F 52% 30.01 in - West 4.6 mph - N/A   Clear
7:20 PM 64.4 °F 48.2 °F 56% 30.01 in - WNW 3.5 mph - N/A   Clear
7:50 PM 60.8 °F 48.2 °F 63% 30.04 in - Variable 2.3 mph - N/A   Clear
8:20 PM 62.6 °F 48.2 °F 59% 30.04 in - Variable 2.3 mph - N/A   Clear
8:50 PM 59.0 °F 48.2 °F 67% 30.04 in - Calm Calm - N/A   Clear
9:20 PM 60.8 °F 50.0 °F 68% 30.04 in - Variable 2.3 mph - N/A   Clear
9:50 PM 57.2 °F 50.0 °F 77% 30.04 in - SE 2.3 mph - N/A   Clear
10:20 PM 57.2 °F 50.0 °F 77% 30.01 in - Variable 1.2 mph - N/A   Clear
10:50 PM 55.4 °F 48.2 °F 77% 30.04 in - East 3.5 mph - N/A   Clear
11:20 PM 57.2 °F 46.4 °F 67% 30.04 in - NNE 4.6 mph - N/A   Clear
11:50 PM 57.2 °F 46.4 °F 67% 30.01 in - NE 6.9 mph - N/A   Clear